Location: Arbon
(43.0005°N, 0.7472°E)
Time: 01:57:37
(UTC+00:00)

Cosmos 1340 Rocket - Pass Details

Date: 07 August 2020
Orbit: 529 x 558 km, 81.2° (Epoch: 19 September)

Event Time Altitude Azimuth Distance (km) Brightness Sun altitude
Exits shadow 03:31:00 23° 242° (WSW) 1,176 3.9 -13.9°
Maximum altitude 03:32:39 32° 286° (WNW) 940 3.7 -13.7°
Drops below altitude 10° 03:36:16 10° 351° (N) 1,809 5.8 -13.1°
Sets 03:38:35 0° 1° (N) 2,701 6.9 -12.8°
